Location: Bexley
(51.4333°N, 0.1500°E)
Time: 22:12:29
(UTC+00:00)

Daily predictions for brighter satellites

Satellite Brightness Start Highest point End
(mag) Time Altitude Azimuth Time Altitude Azimuth Time Altitude Azimuth
SAR-Lupe-2 3.8 16:27:21 10° SE 16:30:48 48° ENE 16:34:16 10° N
Cosmos 1666 3.2 16:29:57 10° N 16:33:12 33° ENE 16:36:26 10° SE
Spot 4 Rocket 4.3 16:28:18 10° S 16:33:25 77° WSW 16:38:36 10° NNW
ARGOS 3.4 16:29:13 10° S 16:34:39 77° WSW 16:40:06 10° NNW
Cosmos 1603 4.2 16:30:46 10° NNW 16:36:06 38° NE 16:41:21 10° ESE
PSLV R/B 3.7 16:35:09 10° SSE 16:39:24 79° WSW 16:43:44 10° NNW
Cosmos 1076 Rocket 3.5 16:36:10 10° N 16:40:31 63° ENE 16:44:50 10° SSE
CZ-2C R/B 3.8 16:37:19 10° N 16:42:15 40° WNW 16:47:04 10° SW
Meteor 1-31 Rocket 3.3 16:40:42 10° SE 16:44:04 34° ENE 16:47:28 10° N
Cosmos 1544 2.8 16:42:09 10° N 16:45:26 87° W 16:48:41 10° S
USA 306 3.3 16:43:34 10° W 16:45:35 29° SSW 16:47:30 10° SSE
Tsikada Rocket 4.3 16:41:00 10° SSW 16:47:11 70° WNW 16:53:23 10° N
SJ-7 4.3 16:45:03 10° SSE 16:49:01 70° ENE 16:53:03 10° N
SL-16 R/B 3.1 16:43:41 10° NW 16:49:13 54° WSW 16:54:43 10° S
ATLAS CENTAUR R/B 2.4 16:45:38 10° WNW 16:49:19 88° SSW 16:56:25 10° ESE
Cosmos 1238 Rocket 3.4 16:46:51 10° SSW 16:50:14 46° WNW 16:53:17 10° N
Cosmos 1602 3.9 16:48:31 10° N 16:52:07 45° ENE 16:55:43 10° SSE
RESURS DK-1 3.9 16:51:14 10° N 16:54:03 18° NE 16:56:12 13° ENE
USA 305 2.9 16:50:28 10° WNW 16:54:15 68° SSW 16:58:04 10° SE
Cosmos 1607 4.0 16:50:25 10° SW 16:56:45 84° SE 17:03:16 10° NE
Cosmos 1606 4.2 16:54:06 10° SW 16:57:28 35° WNW 17:00:52 10° N
CZ-4B R/B 3.9 16:55:30 10° SE 17:00:06 37° ENE 17:04:37 10° N
Cosmos 1943 3.1 16:54:37 10° NNW 17:00:16 69° ENE 17:05:54 10° SE
Helios 1A 4.2 16:58:42 11° NE 17:01:37 21° E 17:04:49 10° SE
ATLAS 2AS CENTAUR R/B 3.1 16:55:19 10° NW 17:02:04 45° NNE 17:08:29 10° E
Cosmos 1782 4.4 16:59:45 10° ESE 17:02:09 16° E 17:03:03 15° ENE
Cosmos 1500 3.1 17:00:20 10° NNW 17:03:53 79° W 17:07:23 10° S
SMAP 3.0 17:02:02 10° SSE 17:06:41 75° ENE 17:11:21 10° NNW
Helios 1B rocket 3.0 17:03:18 10° S 17:07:11 58° WSW 17:11:06 10° NNW
CZ-4B R/B 3.5 17:06:28 10° SSE 17:10:01 65° ENE 17:13:40 10° N
Cosmos 407 Rocket 3.5 17:06:39 10° NNW 17:11:45 55° ENE 17:16:46 10° SE
SL-16 R/B 4.1 17:07:18 10° N 17:12:42 31° WNW 17:18:04 10° WSW
Cosmos 2297 Rocket 3.6 17:07:57 10° WSW 17:13:01 33° NW 17:18:07 10° NNE
SOZ 4.3 17:12:12 10° WSW 17:14:20 56° SSE 17:16:19 19° E
Radarsat Rocket 4.2 17:09:05 10° SE 17:14:36 45° ENE 17:20:28 10° N
Cosmos 405 Rocket 3.6 17:12:32 10° SSW 17:16:15 51° WNW 17:20:02 10° N
ISS -1.1 17:15:15 10° W 17:17:51 21° SW 17:20:27 10° SSE
Cosmos 2219 3.6 17:13:52 10° SW 17:19:26 62° NW 17:25:04 10° NNE
Cosmos 2251 Rocket 3.5 17:14:12 10° NNW 17:19:33 66° ENE 17:24:53 10° SE
Lacrosse 5 3.2 17:26:08 10° S 17:30:01 23° SE 17:31:43 19° E
COSMO-SKYMED 1 3.4 17:29:30 22° ENE 17:31:08 29° E 17:34:55 10° SSE
Cosmos-2242 3.0 17:27:33 10° S 17:31:50 62° E 17:36:07 10° NNE
Lacrosse 4 Rocket 1.8 17:27:43 10° NW 17:32:04 69° WSW 17:36:17 10° SSE
Cosmos 1833 Rocket 4.0 17:28:39 10° NNW 17:32:46 20° NNE 17:33:48 19° NE
Cosmos 2082 3.9 17:28:52 10° SW 17:34:29 73° WNW 17:39:46 12° NNE
Cosmos 2058 Rocket 4.0 17:30:38 10° SSW 17:34:55 48° WNW 17:39:13 10° N
APEX 2.8 17:37:10 10° S 17:39:57 41° ESE 17:39:57 41° ESE
Meteor 1-25 Rocket 4.1 17:35:35 10° NNW 17:41:18 81° ENE 17:46:54 10° SSE
USA 234 3.7 17:37:35 22° ENE 17:41:34 44° SE 17:47:46 10° SSW
Meteor 2-2 Rocket 4.4 17:35:58 10° S 17:41:35 56° E 17:47:21 10° NNE
Cosmos 2344 3.7 17:35:15 10° SSW 17:42:28 51° ESE 17:47:05 22° ENE
Cosmos 2221 4.0 17:39:08 10° SE 17:41:02 20° ESE 17:41:02 20° ESE
Cosmos 1190 Rocket 4.0 17:38:34 10° NNW 17:43:52 60° ENE 17:49:05 10° SE
Cosmos 1812 2.4 17:41:14 10° S 17:44:54 81° E 17:47:41 17° NNE
Cosmos 1818 3.9 17:41:12 10° SSW 17:46:22 46° ESE 17:48:46 29° ENE
USA 276 2.4 17:45:53 10° SW 17:48:03 39° S 17:48:03 39° S
Cosmos 2026 Rocket 4.1 17:42:43 10° SSE 17:48:45 52° E 17:54:54 10° NNE
Cosmos 2195 Rocket 4.4 17:49:35 10° S 17:55:50 67° E 18:02:03 10° NNE
Cosmos 2263 Rocket 2.7 17:55:09 10° SW 18:00:37 55° NW 18:05:03 16° NNE
CZ-4B R/B 4.3 18:01:43 26° NE 18:01:43 26° NE 18:05:17 10° N
Cosmos 1844 Rocket 3.0 17:55:30 10° S 18:00:40 41° ESE 18:02:02 35° ENE
Cosmos 1766 Rocket 3.6 17:58:40 10° N 18:02:56 51° ENE 18:07:10 10° SSE
YAOGAN 1 3.1 18:07:03 40° NE 18:07:03 40° NE 18:10:20 10° N
Cosmos 1092 Rocket 3.8 18:00:08 10° S 18:06:13 69° E 18:12:20 10° NNE
Nadezhda 4 Rocket 4.2 18:00:13 10° SSW 18:06:20 71° WNW 18:12:28 10° N
Cosmos 1933 3.2 18:03:30 10° S 18:07:27 63° E 18:07:55 57° ENE
Cosmos 1420 Rocket 4.3 18:03:00 10° S 18:07:55 42° ESE 18:08:27 41° E
Cosmos 2227 4.1 18:03:27 10° SSW 18:09:13 86° ESE 18:12:32 27° NNE
Cosmos 2227 Rocket 4.0 18:04:56 10° W 18:09:34 25° NW 18:14:00 11° NNE
Cosmos 2082 Rocket 3.9 18:06:31 10° N 18:09:22 16° NNE 18:09:22 16° NNE
YAOGAN 3 4.5 18:06:57 10° SSE 18:11:12 61° ENE 18:15:28 10° N
ADEOS 3.4 18:06:14 10° SSE 18:11:27 76° ENE 18:16:41 10° NNW
Meteor 1-5 Rocket 4.1 18:06:20 10° N 18:12:01 74° ENE 18:17:52 10° SSE
Cosmos 1624 Rocket 4.3 18:10:48 10° S 18:15:39 44° ESE 18:15:39 44° ESE
BREEZE-M DEB (TANK) 3.1 18:13:59 10° WSW 18:15:04 29° SW 18:15:04 29° SW
SKYMED 2 3.4 18:18:08 45° NNE 18:19:26 80° ESE 18:23:47 10° SSW
CZ-4B R/B 3.4 18:20:41 46° NNE 18:20:41 46° NNE 18:23:46 10° N
SL-08 R/B 3.1 18:25:44 66° E 18:25:49 66° ESE 18:30:25 10° S
Cosmos 192 4.2 18:23:14 10° SSW 18:28:06 72° ESE 18:28:35 66° ENE
RESURS DK-1 2.5 18:28:21 10° NNW 18:31:56 66° NNW 18:31:56 66° NNW
Meteor 2-17 Rocket 4.5 18:28:42 10° SSW 18:34:50 80° W 18:41:00 10° N
Helios 1A 3.9 18:35:01 25° N 18:37:06 47° WNW 18:41:04 10° SW
Cosmos 1782 3.4 18:33:47 10° SSW 18:37:37 53° WNW 18:38:16 47° NW
Cosmos 676 Rocket 3.9 18:32:26 10° NNW 18:37:47 86° WSW 18:40:05 35° SSE
EO 1 Delta rocket 4.5 18:43:44 10° S 18:50:18 75° W 18:55:33 10° NNW
ATLAS 2AS CENTAUR R/B 2.9 18:46:31 10° NW 18:53:24 68° SW 18:56:38 32° SSE
CZ-4B DEB 4.2 18:53:03 23° S 18:56:41 80° WSW 19:02:17 10° NNW
Cosmos 1241 Rocket 4.4 18:54:38 10° SSW 19:00:35 68° SSE 19:00:35 68° SSE
ADEOS Rocket 4.2 19:09:44 27° N 19:09:44 27° N 19:12:26 10° N
COSMO-SKYMED 1 3.9 19:06:43 35° NW 19:07:23 37° WNW 19:11:23 10° SW
Cosmos 2056 Rocket 3.8 19:04:11 10° SSW 19:09:06 69° WSW 19:09:06 69° WSW
Lacrosse 5 2.6 19:07:21 10° SW 19:10:56 47° SW 19:10:56 47° SW
Cosmos 1844 3.8 19:06:46 10° SW 19:12:19 74° W 19:12:19 74° W
COSMOS 2455 4.1 19:07:20 10° SSW 19:10:14 29° S 19:10:14 29° S
Timation 2 Rocket 3.9 19:09:35 10° SW 19:15:34 73° NW 19:15:41 73° NW
Cosmos 1833 Rocket 3.7 19:12:07 10° NNW 19:15:30 37° NNW 19:15:30 37° NNW
Cosmos 2221 4.4 19:15:43 10° SW 19:17:46 25° SW 19:17:46 25° SW
S3M 4.4 19:15:36 10° N 19:20:09 53° NNW 19:20:09 53° NNW
USA 234 3.2 19:24:56 81° NNW 19:24:56 81° NNW 19:31:29 10° WSW
Cosmos 1844 Rocket 3.8 19:39:17 10° WSW 19:43:43 40° WNW 19:43:43 40° WNW
Cosmos 2263 Rocket 4.3 19:42:10 10° WNW 19:45:49 17° NNW 19:46:45 17° NNW
Cosmos 2082 Rocket 4.4 19:50:01 10° NNW 19:51:11 16° NNW 19:51:11 16° NNW
Cosmos 2344 4.0 19:49:44 10° WSW 19:56:51 52° NNW 19:57:06 52° NNW
